2022-002DC (51082 NORAD) Tracking and Keplerian Element Data

This shows tracking and keplerian element data for the satellite.

Feedback or suggestion? Click here.




ElementValue
Catalog51082
Name2022-002DC
Epoch Orbit436
Epoch Day42.44610507
Epoch Year2022
RAAN111.6404
Inclination97.4933
Eccentricity0.001312
Argument of Perigee122.5789
Mean Anonmoly237.6711
Mean Motion15.13618021
Decay Rate0.00013766
L11 51082U 22002DC 22042.44610507 .00013766 00000+0 76764-3 0 9994
L22 51082 97.4933 111.6404 0013120 122.5789 237.6711 15.13618021 4369



Live tracking and technical data element details for 2022-002DC (NORAD 51082). 2022-002DC can be tracked NOW for your location showing map with azimuth and elevation plus other details from your city location.







IsCatalogInMostPopularTable: catalog: 51082, numindb: 33
Update: records affected: 1



GetName: 51082 2022-002DC

Hit Count: updated at: Sun, 11 Jun 2023 01:49:19 GMT